Find Kosmos-2351

NORAD ID: 25327 Int'l Des: 1998-027 Owner: PVO Country: RU operational
MEOELLIPTICALHEO_ELLIPTICALSEMI_SYNCMOLNIYA

Live Position

Loading 3D Globe...

About Kosmos-2351

Description loading...

Upcoming Passes

Passes for default location (London). Set your location on the main map for personalized predictions.

Altitude History

Loading altitude history...

Two-Line Element Set

1 25327U 98027A 26102.91307826 .00001147 00000-0 00000-0 0 9995
2 25327 63.6549 126.8816 7074139 180.0460 179.9219 2.00408643204658
Epoch: Apr 12, 2026 • Age: 45 hours

Current Status

Altitude 29351.2 km
Velocity 2.70 km/s
Sub-Earth Point -24.27°S, 8.57°W
Launch Date May 7, 1998
Age 27.9 years
Type other

Technical Details

Classification Payload
Mass 1250.00 kg
Dry Mass 1150.00 kg
Total Mass 1250.00 kg
Length 4.00 m
Diameter 2.00 m
Span 5.00 m
Shape Cyl + 2 Pan
Manufacturer NPOL/KOMET
Bus Type Oko
Phase Status In Orbit
Owner/State PVO/RU

Most Searched